{"data":{"norad_id":56898,"epoch":"2026-05-25T00:52:11.047872Z","epoch_age_seconds":62060,"freshness":"FRESH","line1":"1 56898U 23083Y   26145.03623898  .00000453  00000+0  25975-4 0  9992","line2":"2 56898  43.0044  10.8668 0001305 247.3193 112.7521 15.27577899163458","mean_motion":15.27577899,"eccentricity":0.0001305,"inclination_deg":43.0044,"raan_deg":10.8668,"arg_perigee_deg":247.3193,"mean_anomaly_deg":112.7521,"bstar":2.5975e-5,"rev_number":16345,"period_min":94.266878366247,"perigee_km":482.16000159016,"apogee_km":483.95077280322,"semimajor_km":6861.1923871967,"source":"CELESTRAK","updated_at":"2026-05-25T13:38:18.171696Z"}}